Krumpe's Donut Alley Rally 5K — Results

Hagerstown, Maryland, United States

1st Place

Darren Harman

Krumpe's Donut Alley Rally 5K

14:37

2nd Place

Henry Schmidt

Krumpe's Donut Alley Rally 5K

14:46

3rd Place

David Butts

Krumpe's Donut Alley Rally 5K

15:33

# Bib Name Gender Gender Rank Age Group AG Rank Finish Time Pace
51 258 Jordan Marquiss Male M2029 8 21:44 7:00 /mi
52 683 Saleh Ghazali Male M4049 9 21:48 7:01 /mi
53 654 Stephen Bui Male M5059 5 21:55 7:03 /mi
54 485 Mikaela Jerwick Female F2029 1 21:55 7:03 /mi
55 522 Carter Burcker Male M1315 5 22:04 7:06 /mi
56 729 John Brown Male M2029 9 22:07 7:07 /mi
57 90 Kilby Ritter Male M4049 10 22:13 7:09 /mi
58 311 JASON HINERMAN Male M4049 11 22:19 7:11 /mi
59 818 Chris Pereschuk Male M4049 12 22:32 7:15 /mi
60 451 Dalton McKean Male M1315 6 22:32 7:15 /mi
61 576 Jeff Byard Male M4049 13 22:35 7:16 /mi
62 166 Kelsey Weaver Female F2029 2 22:51 7:21 /mi
63 491 Henry Livingston Male M2029 10 22:53 7:22 /mi
64 181 David Bailey Male M3039 6 23:02 7:25 /mi
65 725 Cadence Ferguson Female F1315 1 23:06 7:26 /mi
66 782 Marinn King Female F1315 2 23:12 7:28 /mi
67 829 Will Stahr Male M6069 1 23:17 7:30 /mi
68 575 C. Byard Male 23:18 7:30 /mi
69 433 C. Philp Female 23:18 7:30 /mi
70 765 Ryan Kothari Male M1315 7 23:19 7:30 /mi
71 432 A. Philp Male 23:20 7:31 /mi
72 799 C. Wilson Male 23:30 7:34 /mi
73 219 Karrah Weaver Female F2029 3 23:31 7:34 /mi
74 512 Chris Trovinger Male M2029 11 23:31 7:34 /mi
75 43 Duane Christy Male M5059 6 23:32 7:34 /mi
76 80 Rian Johnson Female F1315 3 23:33 7:35 /mi
77 486 Kelly Buckwalter Female F5059 1 23:33 7:35 /mi
78 697 Peter Gale Male M3039 7 23:34 7:35 /mi
79 819 Thomas Mains Male M1619 13 23:35 7:35 /mi
80 699 Kelly Shindle Female F4049 2 23:37 7:36 /mi
81 86 Jim Sprecher Male M4049 14 23:43 7:38 /mi
82 448 Christine Kline Female F3039 2 23:51 7:41 /mi
83 105 Jordan Weaver Female F3039 3 24:03 7:44 /mi
84 580 Shawn Lawson Male M5059 7 24:09 7:46 /mi
85 679 Michael Duggan Male M3039 8 24:15 7:48 /mi
86 306 Craig Leisher Male M6069 2 24:16 7:49 /mi
87 784 Herb Peddicord Male M6069 3 24:23 7:51 /mi
88 820 jeff fox Male M5059 8 24:24 7:51 /mi
89 205 Roxanne Kircher Female F4049 3 24:25 7:52 /mi
90 41 Christopher Smith Male M5059 9 24:34 7:54 /mi
91 112 Lexie Wietz Female F1315 4 24:39 7:56 /mi
92 252 Tim Calimer Male M5059 10 24:47 7:59 /mi
93 467 Mussie Kahsay Male M4049 15 24:48 7:59 /mi
94 831 Kara Gray Female F2029 4 24:48 7:59 /mi
95 163 Kevin Moriarty Male M6069 4 24:48 7:59 /mi
96 508 Audrey Birgin Female F2029 5 24:49 7:59 /mi
97 68 Mady Welsh Female F2029 6 24:49 7:59 /mi
98 150 Harley Shaff Male M2029 12 24:52 8:00 /mi
99 273 Michael Staley Male M3039 9 24:54 8:01 /mi
100 560 Adam Merrill Male M4049 16 24:55 8:01 /mi

Showing 51–100 of 693 results